Regional Weather Roundup
Issued by NWS Austin/San Antonio, TX

Current Version | Previous Version | Text Only | Print | Product List | Glossary On
Versions: 1 2 3 4 5 6 7 8 9 10 11 12 13 14 15 16 17 18 19 20 21 22 23 24 25 26 27 28 29 30 31 32 33 34 35 36 37 38 39 40 41 42 43 44 45 46 47 48 49 50
000
ASUS44 KEWX 131001
RWREWX
SOUTH TEXAS REGIONAL WEATHER ROUNDUP
NATIONAL WEATHER SERVICE AUSTIN/SAN ANTONIO TX
500 AM CDT SUN JUN 13 2021

NOTE: "FAIR" INDICATED FEW OR NO CLOUDS BELOW 12,000 FEET WITH NO
SIGNIFICANT WEATHER AND/OR OBSTRUCTIONS TO VISIBILITY.

* - THESE STATIONS ARE NOT NWS OR FAA STATIONS...AND ARE NOT SUBJECT
    TO NWS AND FAA QUALITY CONTROL.

TXZ171-172-183>190-131100-
TEXAS HILL COUNTRY AND EDWARDS PLATEAU

CITY           SKY/WX    TMP DP  RH WIND       PRES   REMARKS
JUNCTION       CLEAR     72  67  84 W3        30.02R
*LLANO         CLEAR     68  66  94 CALM      29.99R
BURNET         CLEAR     74  70  87 CALM      30.01R
*HORSESHOE BAY CLEAR     73  70  91 CALM      29.99R
*LAGO VISTA    PTCLDY    76  72  87 SW5       30.00R
*KERRVILLE     CLEAR     72  69  91 CALM      30.01R
*FREDERICKSBRG CLEAR    N/A N/A N/A SW3       30.00R
*ROCKSPRINGS     N/A     72  70  94 MISG      30.08R
*BOERNE        MOCLDY    72  72 100 SW3       30.00R
*CASTROVILLE   CLEAR     74  73  98 CALM      29.99R
HONDO          CLEAR     71  68  90 N3        29.97R
*UVALDE        CLEAR     71  71 100 NE5       29.99R
DEL RIO        CLEAR     81  73  76 E8        29.95R
*LAUGHLIN AFB  NOT AVBL
*SPOFFORD      NOT AVBL
*EAGLE PASS    CLEAR     77  72  83 E6        29.94R
CARRIZO SPRGS  CLEAR    N/A N/A N/A SE3       29.93R
$$

TXZ173-191>194-202-209-217>225-228-131100-
CENTRAL AND SOUTH CENTRAL TEXAS

CITY           SKY/WX    TMP DP  RH WIND       PRES   REMARKS
GEORGETOWN     CLEAR     73  70  90 CALM      30.00R
*TAYLOR        CLEAR     73 N/A N/A SW3       29.97R
AUSTIN/BERGSTM CLOUDY    73  73 100 S5        29.97R
AUSTIN/MABRY   CLEAR     77  71  82 CALM      29.98R
*PFLUGERVILLE  MOCLDY    75  73  94 CALM      29.95R
SAN MARCOS     CLEAR     75  75 100 CALM      29.98R
NEW BRAUNFELS  CLEAR     74  72  93 CALM      29.95R
*RANDOLPH AFB  CLEAR     75  74  96 W6        29.95R
*SEGUIN        NOT AVBL
SAN ANTONIO    PTCLDY    75  73  93 SW5       29.97R
STINSON FIELD  CLEAR     77  72  84 CALM      29.94R
*KELLY FIELD   CLEAR     74  73  96 CALM      29.95R
*PLEASANTON    CLOUDY    76  75  95 CALM      29.96R
*KENEDY        CLEAR     75  73  96 CALM      29.95R
*LA GRANGE     PTCLDY    77  77 100 CALM      29.95R
*GIDDINGS      PTCLDY    76  74  94 SW3       29.98R
*GONZALES      CLOUDY    76  76 100 CALM      29.96R
$$

TXZ163>164-176>182-195>201-210>213-226-227-235-131100-
SOUTHEAST TEXAS

CITY           SKY/WX    TMP DP  RH WIND       PRES   REMARKS
COLLEGE STN    PTCLDY    78  74  87 CALM      29.95R
*BRYAN         PTCLDY    78  76  94 CALM      29.97R
*CALDWELL      MOCLDY    77  75  94 SW3       29.97R
*CROCKETT      PTCLDY    73  73 100 CALM      29.94R FOG
*BRENHAM       MOCLDY    78  77  95 CALM      29.96R
HUNTSVILLE     PTCLDY    80  79  96 SW3       29.94R
CONROE         MOCLDY    79  75  87 W5        29.95R
HOUSTON BUSH   CLOUDY    82  75  79 W5        29.94R
HOUSTON HOBBY  CLOUDY    82  75  79 W9        29.93S
*HOUSTON SW AP CLOUDY    78  76  95 CALM      29.95S
PEARLAND       CLOUDY    79  75  87 CALM      29.95R
HOUSTON HOOKS  CLOUDY    80  75  84 W5        29.94S
ELLINGTON FLD  PTCLDY    81  75  83 W5        29.93
SUGAR LAND     CLOUDY    80  76  87 SW3       29.94R
*HOUSTON EXEC    N/A     79  79 100 SW5       29.95S
*CLEVELAND MUN CLOUDY    77  77  99 CALM      29.95R
*WHARTON       CLEAR     75  73  95 CALM      29.96S
*COLUMBUS      FAIR      75  74  98 CALM      29.97R
*EAGLE LAKE    PTCLDY    78  76  94 SW5       29.95S
$$

TXZ214>216-236>238-131100-
THE UPPER TEXAS COAST

CITY           SKY/WX    TMP DP  RH WIND       PRES   REMARKS
*ORANGE        CLEAR     77  75  92 CALM      29.94S FOG
PORT ARTHUR    CLEAR     76  76 100 SW3       29.92R
GALVESTON      PTCLDY    81  75  82 SW6       29.94R
ANGLETON       PTCLDY    75  73  93 CALM      29.94R
*BAY CITY      NOT AVBL
PALACIOS       CLEAR     77  76  96 N3        29.94R
$$

TXZ229>234-239>247-131100-
TEXAS COASTAL BEND AND RIO GRANDE PLAINS

CITY           SKY/WX    TMP DP  RH WIND       PRES   REMARKS
VICTORIA       CLEAR     76  74  93 CALM      29.94S
*BEEVILLE      PTCLDY    76  76 100 CALM      29.93R FOG
ROCKPORT       CLEAR     75  74  96 CALM      29.92R
*PORT ARANSAS  PTCLDY    80  76  88 S6        29.94R
*PORT LAVACA   CLEAR     76  73  90 CALM      29.94S
*INGLESIDE     CLEAR     78  75  92 CALM      29.91R
CORPUS CHRISTI PTCLDY    74  74 100 CALM      29.91S
CORPUS NAS     CLEAR     78  75  90 S6        29.91R
*ROBSTOWN        N/A     75  74  97 SW3       29.92S FOG
ALICE          CLEAR     74  73  97 SW5       29.92S
KINGSVILLE NAS CLEAR     75  74  96 SW5       29.91S
COTULLA        NOT AVBL
LAREDO         CLEAR     77  72  84 SE8       29.93S
$$

TXZ248>255-131100-
DEEP SOUTH TEXAS

CITY           SKY/WX    TMP DP  RH WIND       PRES   REMARKS
BROWNSVILLE    CLEAR     77  73  87 CALM      29.91R
PORT ISABEL    CLEAR     77  74  90 CALM      29.91S
HARLINGEN      CLEAR     73  73 100 CALM      29.91S
*HEBBRONVILLE  CLEAR     73  67  82 CALM      29.95F HAZE
MCALLEN        CLEAR     76  73  91 CALM      29.92S
*WESLACO       MOCLDY    74  73  96 CALM      29.92R
FALFURRIAS     MOCLDY    71  71 100 CALM      29.92F VSB 1
EDINBURG       CLEAR     73  73 100 CALM      29.93S FOG
*ZAPATA        CLEAR     76  73  89 CALM      29.95R
$$

TXZ213>215-236>238-242>244-246-247-251-254-255-131100-
CMAN STATIONS

STATION/POSITION TIME  TEMP    WIND        PRES    WAVE
                       AIR SEA DIR/SP/G            HT/PER
                 (UTC) (F)     (DEG/KT/KT) (MB)    (FT/S)
NORTH JETTY/GLS  0930   83 85  230/  5/  7 1012.4
EAGLE POINT      0930   80 87  240/  5/  6 1013.1
MORGANS POINT    0930   81 84  250/  7/  9 1013.5
MISSION/ARANSAS  0900   80     180/  5     1014.0
PORT O`CONNOR    0930   81 88  210/  5/  7 1013.2
PORT ARANSAS     0900   81 84  190/ 10/ 11 1012.7
MALAQUITE BEACH  0930   80     170/ 11/ 12   N/A
BAFFIN BAY       0930   80 86  150/ 10/ 13 1012.4
PORT ISABEL      0930   80 82  160/  4/  7 1014.0
$$



USA.gov is the U.S. government's official web portal to all federal, state and local government web resources and services.